Time,TemperatureF,DewpointF,PressureIn,WindDirection,WindDirectionDegrees,WindSpeedMPH,WindSpeedGustMPH,Humidity,HourlyPrecipIn,Conditions,Clouds,dailyrainin,SolarRadiationWatts/m^2,SoftwareType,DateUTC
2013-06-23 00:03:00,71.2,65.1,29.85,NNW,343,0.0,0.0,81,0.00,RA,,0.00,0.0,WeatherDisplay:10.37,2013-06-22 22:03:00,
2013-06-23 00:08:00,71.2,65.1,29.85,North,355,0.0,3.5,81,0.00,RA,,0.00,0.0,WeatherDisplay:10.37,2013-06-22 22:08:00,
2013-06-23 00:13:00,71.2,65.1,29.86,North,355,0.0,0.0,81,0.00,CLR,,0.00,0.0,WeatherDisplay:10.37,2013-06-22 22:13:00,
2013-06-23 00:18:00,71.1,65.0,29.87,North,355,0.0,0.0,81,0.00,CLR,,0.00,0.0,WeatherDisplay:10.37,2013-06-22 22:18:00,
2013-06-23 00:23:00,71.0,64.9,29.87,SE,144,0.3,2.3,81,0.00,CLR,,0.00,0.0,WeatherDisplay:10.37,2013-06-22 22:23:00,
2013-06-23 00:28:00,70.9,65.1,29.86,SE,144,0.2,1.2,82,0.00,CLR,,0.00,0.0,WeatherDisplay:10.37,2013-06-22 22:28:00,
2013-06-23 00:33:00,70.8,65.0,29.86,South,169,0.9,3.5,82,0.00,CLR,,0.00,0.0,WeatherDisplay:10.37,2013-06-22 22:33:00,
2013-06-23 00:38:00,70.7,64.9,29.86,SSE,167,0.5,1.2,82,0.00,CLR,,0.00,0.0,WeatherDisplay:10.37,2013-06-22 22:38:00,
2013-06-23 00:43:00,70.6,65.2,29.86,NNW,347,0.5,3.5,83,0.00,CLR,,0.00,0.0,WeatherDisplay:10.37,2013-06-22 22:43:00,
2013-06-23 00:48:00,70.6,64.8,29.84,East,101,3.6,5.0,82,0.00,CLR,,0.00,0.0,WeatherDisplay:10.37,2013-06-22 22:48:00,
2013-06-23 00:53:00,70.6,65.2,29.83,East,95,0.8,8.1,83,0.00,CLR,,0.00,0.0,WeatherDisplay:10.37,2013-06-22 22:53:00,
2013-06-23 00:58:00,70.6,65.2,29.83,SSE,155,0.0,0.0,83,0.00,CLR,,0.00,0.0,WeatherDisplay:10.37,2013-06-22 22:58:00,
2013-06-23 01:03:00,70.5,65.1,29.83,East,98,0.4,2.3,83,0.00,CLR,,0.00,0.0,WeatherDisplay:10.37,2013-06-22 23:03:00,
2013-06-23 01:08:00,70.5,64.7,29.84,ENE,65,0.3,3.5,82,0.00,CLR,,0.00,0.0,WeatherDisplay:10.37,2013-06-22 23:08:00,
2013-06-23 01:13:00,70.5,64.7,29.84,North,11,0.2,2.3,82,0.00,CLR,,0.00,0.0,WeatherDisplay:10.37,2013-06-22 23:13:00,
2013-06-23 01:18:00,70.4,64.6,29.84,NE,34,0.6,2.0,82,0.00,CLR,,0.00,0.0,WeatherDisplay:10.37,2013-06-22 23:18:00,
2013-06-23 01:23:00,70.4,64.6,29.84,NNE,32,1.1,3.0,82,0.00,CLR,,0.00,0.0,WeatherDisplay:10.37,2013-06-22 23:23:00,
2013-06-23 01:28:00,70.3,64.9,29.84,NNE,32,0.8,2.3,83,0.00,CLR,,0.00,0.0,WeatherDisplay:10.37,2013-06-22 23:28:00,
2013-06-23 01:33:00,70.3,64.9,29.83,NE,50,0.9,3.5,83,0.00,CLR,,0.00,0.0,WeatherDisplay:10.37,2013-06-22 23:33:00,
2013-06-23 01:38:00,70.3,64.9,29.83,ENE,70,1.9,5.8,83,0.00,CLR,,0.00,0.0,WeatherDisplay:10.37,2013-06-22 23:38:00,
2013-06-23 01:43:00,70.2,64.8,29.83,ENE,60,0.2,2.3,83,0.00,CLR,,0.00,0.0,WeatherDisplay:10.37,2013-06-22 23:43:00,
2013-06-23 01:48:00,70.1,64.7,29.83,NNE,28,0.3,3.5,83,0.00,CLR,,0.00,0.0,WeatherDisplay:10.37,2013-06-22 23:48:00,
2013-06-23 01:53:00,70.0,64.6,29.83,NNE,13,0.1,3.5,83,0.00,CLR,,0.00,0.0,WeatherDisplay:10.37,2013-06-22 23:53:00,
2013-06-23 01:58:00,70.0,64.9,29.83,East,99,0.2,2.3,84,0.00,CLR,,0.00,0.0,WeatherDisplay:10.37,2013-06-22 23:58:00,
2013-06-23 02:03:00,69.9,64.5,29.82,East,96,0.0,1.2,83,0.00,CLR,,0.00,0.0,WeatherDisplay:10.37,2013-06-23 00:03:00,
2013-06-23 02:08:00,69.9,64.5,29.82,East,96,0.0,1.2,83,0.00,CLR,,0.00,0.0,WeatherDisplay:10.37,2013-06-23 00:08:00,
2013-06-23 02:14:00,69.8,64.4,29.83,East,96,0.0,0.0,83,0.00,CLR,,0.00,0.0,WeatherDisplay:10.37,2013-06-23 00:14:00,
2013-06-23 02:19:00,69.8,64.4,29.83,East,96,0.0,1.2,83,0.00,CLR,,0.00,0.0,WeatherDisplay:10.37,2013-06-23 00:19:00,
2013-06-23 02:24:00,69.8,64.4,29.83,East,96,0.1,1.2,83,0.00,CLR,,0.00,0.0,WeatherDisplay:10.37,2013-06-23 00:24:00,
2013-06-23 02:29:00,69.7,64.3,29.83,East,96,0.1,1.0,83,0.00,CLR,,0.00,0.0,WeatherDisplay:10.37,2013-06-23 00:29:00,
2013-06-23 02:34:00,69.7,64.3,29.82,East,96,0.2,1.2,83,0.00,CLR,,0.00,0.0,WeatherDisplay:10.37,2013-06-23 00:34:00,
2013-06-23 02:39:00,69.7,64.3,29.83,East,96,0.0,1.2,83,0.00,CLR,,0.00,0.0,WeatherDisplay:10.37,2013-06-23 00:39:00,
2013-06-23 02:44:00,69.7,64.3,29.83,East,96,0.8,3.5,83,0.00,CLR,,0.00,0.0,WeatherDisplay:10.37,2013-06-23 00:44:00,
2013-06-23 02:49:00,69.7,64.3,29.84,East,96,0.0,0.0,83,0.00,CLR,,0.00,0.0,WeatherDisplay:10.37,2013-06-23 00:49:00,
2013-06-23 02:54:00,69.7,64.6,29.84,East,96,2.2,5.0,84,0.00,CLR,,0.00,0.0,WeatherDisplay:10.37,2013-06-23 00:54:00,
2013-06-23 02:59:00,69.8,64.7,29.84,WNW,297,1.0,3.5,84,0.00,CLR,,0.00,0.0,WeatherDisplay:10.37,2013-06-23 00:59:00,
2013-06-23 03:04:00,69.8,64.7,29.84,WNW,296,0.0,0.0,84,0.01,RA,,0.01,0.0,WeatherDisplay:10.37,2013-06-23 01:04:00,
2013-06-23 03:09:00,69.8,64.7,29.84,WNW,296,0.0,0.0,84,0.01,RA,,0.01,0.0,WeatherDisplay:10.37,2013-06-23 01:09:00,
2013-06-23 03:14:00,69.7,65.0,29.84,WNW,297,0.1,1.0,85,0.02,RA,,0.02,0.0,WeatherDisplay:10.37,2013-06-23 01:14:00,
2013-06-23 03:19:00,69.6,64.9,29.84,WNW,292,0.3,4.6,85,0.02,RA,,0.02,0.0,WeatherDisplay:10.37,2013-06-23 01:19:00,
2013-06-23 03:24:00,69.5,65.1,29.85,West,262,2.7,6.0,86,0.02,RA,,0.02,0.0,WeatherDisplay:10.37,2013-06-23 01:24:00,
2013-06-23 03:29:00,69.4,65.0,29.85,WSW,238,2.4,5.8,86,0.03,RA,,0.03,0.0,WeatherDisplay:10.37,2013-06-23 01:29:00,
2013-06-23 03:34:00,69.2,65.2,29.85,SW,236,6.1,9.2,87,0.04,RA,,0.04,0.0,WeatherDisplay:10.37,2013-06-23 01:34:00,
2013-06-23 03:39:00,69.1,65.4,29.85,SSW,194,4.5,11.5,88,0.05,RA,,0.05,0.0,WeatherDisplay:10.37,2013-06-23 01:39:00,
2013-06-23 03:44:00,68.9,65.2,29.85,West,262,4.2,6.9,88,0.06,RA,,0.06,0.0,WeatherDisplay:10.37,2013-06-23 01:44:00,
2013-06-23 03:49:00,68.7,65.0,29.84,South,186,2.4,9.0,88,0.07,RA,,0.07,0.0,WeatherDisplay:10.37,2013-06-23 01:49:00,
2013-06-23 03:54:00,68.6,65.2,29.84,WSW,241,4.5,10.4,89,0.08,RA,,0.08,0.0,WeatherDisplay:10.37,2013-06-23 01:54:00,
2013-06-23 03:59:00,68.5,65.1,29.83,WSW,240,0.1,3.5,89,0.09,RA,,0.09,0.0,WeatherDisplay:10.37,2013-06-23 01:59:00,
2013-06-23 04:04:00,68.4,65.4,29.83,North,360,0.2,1.2,90,0.08,RA,,0.09,0.0,WeatherDisplay:10.37,2013-06-23 02:04:00,
2013-06-23 04:09:00,68.3,65.3,29.84,SW,230,2.4,6.9,90,0.09,RA,,0.09,0.0,WeatherDisplay:10.37,2013-06-23 02:09:00,
2013-06-23 04:14:00,68.3,65.3,29.85,WSW,240,0.8,3.0,90,0.09,RA,,0.11,0.0,WeatherDisplay:10.37,2013-06-23 02:14:00,
2013-06-23 04:19:00,68.3,65.6,29.84,WSW,246,0.0,3.5,91,0.10,RA,,0.12,0.0,WeatherDisplay:10.37,2013-06-23 02:19:00,
2013-06-23 04:24:00,68.2,65.5,29.84,South,178,1.8,5.0,91,0.09,RA,,0.12,0.0,WeatherDisplay:10.37,2013-06-23 02:24:00,
2013-06-23 04:29:00,68.2,65.5,29.84,SE,129,0.0,3.5,91,0.09,RA,,0.13,0.0,WeatherDisplay:10.37,2013-06-23 02:29:00,
2013-06-23 04:34:00,68.2,65.5,29.83,SSE,161,1.3,3.5,91,0.09,RA,,0.13,0.0,WeatherDisplay:10.37,2013-06-23 02:34:00,
2013-06-23 04:39:00,68.2,65.5,29.83,SSW,195,0.8,3.5,91,0.08,CLR,,0.13,0.0,WeatherDisplay:10.37,2013-06-23 02:39:00,
2013-06-23 04:44:00,68.1,65.7,29.83,South,183,1.6,4.0,92,0.07,CLR,,0.13,0.0,WeatherDisplay:10.37,2013-06-23 02:44:00,
2013-06-23 04:49:00,68.1,65.7,29.82,South,182,0.7,3.0,92,0.06,CLR,,0.13,0.0,WeatherDisplay:10.37,2013-06-23 02:49:00,
2013-06-23 04:54:00,68.1,65.7,29.83,ESE,115,0.9,3.5,92,0.05,CLR,,0.13,0.0,WeatherDisplay:10.37,2013-06-23 02:54:00,
2013-06-23 04:59:00,68.1,65.7,29.83,ESE,109,2.2,5.0,92,0.04,CLR,,0.13,0.0,WeatherDisplay:10.37,2013-06-23 02:59:00,
2013-06-23 05:04:00,68.1,65.7,29.83,SE,136,0.8,3.5,92,0.04,CLR,,0.13,0.0,WeatherDisplay:10.37,2013-06-23 03:04:00,
2013-06-23 05:09:00,68.1,66.0,29.83,ESE,121,2.3,5.0,93,0.03,CLR,,0.13,0.0,WeatherDisplay:10.37,2013-06-23 03:09:00,
2013-06-23 05:14:00,68.1,66.0,29.83,SE,138,2.0,7.0,93,0.03,RA,,0.13,0.0,WeatherDisplay:10.37,2013-06-23 03:14:00,
2013-06-23 05:19:00,68.1,66.0,29.83,ESE,120,2.5,4.6,93,0.02,RA,,0.13,0.0,WeatherDisplay:10.37,2013-06-23 03:19:00,
2013-06-23 05:24:00,68.1,66.0,29.82,SE,132,0.8,3.5,93,0.02,CLR,,0.13,0.0,WeatherDisplay:10.37,2013-06-23 03:24:00,
2013-06-23 05:29:00,68.1,66.0,29.82,SE,124,0.0,1.2,93,0.01,CLR,,0.13,0.0,WeatherDisplay:10.37,2013-06-23 03:29:00,
2013-06-23 05:34:00,68.1,66.0,29.82,SE,124,0.0,1.2,93,0.01,CLR,,0.13,5.0,WeatherDisplay:10.37,2013-06-23 03:34:00,
2013-06-23 05:39:00,68.1,66.0,29.82,NNW,334,1.1,4.0,93,0.01,CLR,,0.13,5.0,WeatherDisplay:10.37,2013-06-23 03:39:00,
2013-06-23 05:44:00,68.1,66.0,29.82,NNE,21,2.4,3.5,93,0.02,RA,,0.14,7.0,WeatherDisplay:10.37,2013-06-23 03:44:00,
2013-06-23 05:49:00,68.1,66.0,29.83,North,360,0.0,2.3,93,0.02,RA,,0.14,11.0,WeatherDisplay:10.37,2013-06-23 03:49:00,
2013-06-23 05:54:00,68.1,66.0,29.83,North,350,2.1,5.0,93,0.02,BKN,,0.14,12.0,WeatherDisplay:10.37,2013-06-23 03:54:00,
2013-06-23 05:59:00,68.1,66.3,29.83,North,360,5.1,7.0,94,0.02,BKN,,0.14,12.0,WeatherDisplay:10.37,2013-06-23 03:59:00,
2013-06-23 06:01:00,68.1,66.3,29.83,NNE,21,3.3,6.9,94,0.02,RA,,0.15,19.0,WeatherDisplay:10.37,2013-06-23 04:01:00,
2013-06-23 06:02:00,68.1,66.3,29.83,NE,51,1.7,5.8,94,0.02,RA,,0.15,21.0,WeatherDisplay:10.37,2013-06-23 04:02:00,
2013-06-23 06:04:00,68.1,66.3,29.84,North,10,2.2,4.6,94,0.02,RA,,0.15,23.0,WeatherDisplay:10.37,2013-06-23 04:04:00,
2013-06-23 06:05:00,68.1,66.3,29.84,North,9,2.0,6.0,94,0.00,RA,,0.15,23.0,WeatherDisplay:10.37,2013-06-23 04:05:00,
2013-06-23 06:10:00,68.0,65.9,29.84,NNE,20,0.0,2.0,93,0.01,RA,,0.15,26.0,WeatherDisplay:10.37,2013-06-23 04:10:00,
2013-06-23 06:15:00,68.0,66.2,29.84,NW,325,0.0,1.2,94,0.02,BKN,,0.15,35.0,WeatherDisplay:10.37,2013-06-23 04:15:00,
2013-06-23 06:20:00,68.0,66.2,29.84,North,360,0.1,2.3,94,0.02,BKN,,0.15,44.0,WeatherDisplay:10.37,2013-06-23 04:20:00,
2013-06-23 06:25:00,68.0,66.2,29.84,NW,325,0.1,1.0,94,0.02,BKN,,0.15,46.0,WeatherDisplay:10.37,2013-06-23 04:25:00,
2013-06-23 06:30:00,68.1,66.3,29.84,NNW,334,0.6,3.0,94,0.02,BKN,,0.15,47.0,WeatherDisplay:10.37,2013-06-23 04:30:00,
2013-06-23 06:35:00,68.1,66.3,29.85,East,92,0.2,3.5,94,0.02,BKN,,0.15,47.0,WeatherDisplay:10.37,2013-06-23 04:35:00,
2013-06-23 06:40:00,68.1,66.3,29.85,East,89,0.3,3.5,94,0.02,BKN,,0.15,54.0,WeatherDisplay:10.37,2013-06-23 04:40:00,
2013-06-23 06:45:00,68.2,66.4,29.86,ESE,105,0.5,2.3,94,0.01,BKN,,0.15,56.0,WeatherDisplay:10.37,2013-06-23 04:45:00,
2013-06-23 06:50:00,68.2,66.4,29.86,SE,140,0.2,1.2,94,0.01,BKN,,0.15,60.0,WeatherDisplay:10.37,2013-06-23 04:50:00,
2013-06-23 06:55:00,68.2,66.4,29.86,SE,141,0.0,2.3,94,0.01,BKN,,0.15,53.0,WeatherDisplay:10.37,2013-06-23 04:55:00,
2013-06-23 07:00:00,68.2,66.4,29.86,SE,141,0.2,1.0,94,0.01,BKN,,0.15,58.0,WeatherDisplay:10.37,2013-06-23 05:00:00,
2013-06-23 07:05:00,68.3,66.8,29.85,SE,140,0.0,1.2,95,0.00,BKN,,0.15,62.0,WeatherDisplay:10.37,2013-06-23 05:05:00,
2013-06-23 07:10:00,68.4,66.9,29.85,SE,140,0.2,2.0,95,0.00,BKN,,0.15,69.0,WeatherDisplay:10.37,2013-06-23 05:10:00,
2013-06-23 07:15:00,68.4,66.9,29.85,SE,141,0.0,0.0,95,0.00,BKN,,0.15,81.0,WeatherDisplay:10.37,2013-06-23 05:15:00,
2013-06-23 07:20:00,68.5,67.0,29.85,ENE,78,0.8,3.5,95,0.00,BKN,,0.15,90.0,WeatherDisplay:10.37,2013-06-23 05:20:00,
2013-06-23 07:25:00,68.5,67.0,29.84,East,81,0.5,2.3,95,0.00,BKN,,0.15,88.0,WeatherDisplay:10.37,2013-06-23 05:25:00,
2013-06-23 07:30:00,68.5,67.0,29.84,East,84,0.5,2.3,95,0.00,BKN,,0.15,84.0,WeatherDisplay:10.37,2013-06-23 05:30:00,
2013-06-23 07:35:00,68.6,67.1,29.84,ESE,112,1.8,4.0,95,0.00,BKN,,0.15,81.0,WeatherDisplay:10.37,2013-06-23 05:35:00,
2013-06-23 07:40:00,68.6,67.1,29.84,East,94,0.8,3.5,95,0.00,BKN,,0.15,77.0,WeatherDisplay:10.37,2013-06-23 05:40:00,
2013-06-23 07:45:00,68.6,67.1,29.84,East,96,1.8,3.5,95,0.00,BKN,,0.15,77.0,WeatherDisplay:10.37,2013-06-23 05:45:00,
2013-06-23 07:50:00,68.6,66.8,29.84,ENE,67,3.3,6.0,94,0.00,BKN,,0.15,70.0,WeatherDisplay:10.37,2013-06-23 05:50:00,
2013-06-23 07:55:00,68.6,66.8,29.84,East,84,0.4,4.6,94,0.00,BKN,,0.15,69.0,WeatherDisplay:10.37,2013-06-23 05:55:00,
2013-06-23 08:00:00,68.6,67.1,29.84,East,83,0.5,2.3,95,0.00,BKN,,0.15,74.0,WeatherDisplay:10.37,2013-06-23 06:00:00,
2013-06-23 08:05:00,68.7,67.2,29.83,East,83,0.0,1.2,95,0.00,BKN,,0.15,77.0,WeatherDisplay:10.37,2013-06-23 06:05:00,
2013-06-23 08:07:00,68.7,67.2,29.84,East,83,0.0,0.0,95,0.00,BKN,,0.15,77.0,WeatherDisplay:10.37,2013-06-23 06:07:00,
2013-06-23 08:12:00,68.8,67.3,29.84,East,83,0.0,0.0,95,0.00,BKN,,0.15,84.0,WeatherDisplay:10.37,2013-06-23 06:12:00,
2013-06-23 08:17:00,68.9,67.4,29.84,East,84,0.0,0.0,95,0.00,BKN,,0.15,88.0,WeatherDisplay:10.37,2013-06-23 06:17:00,
2013-06-23 08:22:00,69.0,67.5,29.84,East,83,0.0,0.0,95,0.00,BKN,,0.15,95.0,WeatherDisplay:10.37,2013-06-23 06:22:00,
2013-06-23 08:27:00,69.1,67.6,29.84,East,84,1.2,2.3,95,0.00,BKN,,0.15,113.0,WeatherDisplay:10.37,2013-06-23 06:27:00,
2013-06-23 08:32:00,69.1,67.6,29.84,WNW,288,0.5,3.5,95,0.00,BKN,,0.15,134.0,WeatherDisplay:10.37,2013-06-23 06:32:00,
2013-06-23 08:37:00,69.3,67.8,29.84,WNW,288,0.0,0.0,95,0.00,BKN,,0.15,156.0,WeatherDisplay:10.37,2013-06-23 06:37:00,
2013-06-23 08:42:00,69.3,67.8,29.84,WNW,288,0.8,3.5,95,0.00,BKN,,0.15,160.0,WeatherDisplay:10.37,2013-06-23 06:42:00,
2013-06-23 08:47:00,69.3,67.8,29.84,WNW,288,2.1,3.0,95,0.00,BKN,,0.15,188.0,WeatherDisplay:10.37,2013-06-23 06:47:00,
2013-06-23 08:52:00,69.7,68.2,29.84,WNW,288,0.7,2.3,95,0.00,BKN,,0.15,234.0,WeatherDisplay:10.37,2013-06-23 06:52:00,
2013-06-23 08:57:00,69.9,68.4,29.83,WNW,288,0.5,3.5,95,0.00,SCT,,0.15,443.0,WeatherDisplay:10.37,2013-06-23 06:57:00,
2013-06-23 09:02:00,70.7,69.2,29.83,WNW,297,1.1,5.8,95,0.00,SCT,,0.15,406.0,WeatherDisplay:10.37,2013-06-23 07:02:00,
2013-06-23 09:07:00,71.1,69.3,29.83,West,269,4.2,5.0,94,0.00,FEW,,0.15,367.0,WeatherDisplay:10.37,2013-06-23 07:07:00,
2013-06-23 09:12:00,71.4,69.0,29.83,WNW,291,4.2,7.0,92,0.00,SCT,,0.15,313.0,WeatherDisplay:10.37,2013-06-23 07:12:00,
2013-06-23 09:17:00,71.4,68.6,29.83,WNW,292,1.4,4.0,91,0.00,SCT,,0.15,309.0,WeatherDisplay:10.37,2013-06-23 07:17:00,
2013-06-23 09:22:00,71.5,68.4,29.83,NNW,339,0.5,3.5,90,0.00,SCT,,0.15,288.0,WeatherDisplay:10.37,2013-06-23 07:22:00,
2013-06-23 09:27:00,71.7,68.6,29.83,WNW,286,2.2,4.0,90,0.00,SCT,,0.15,269.0,WeatherDisplay:10.37,2013-06-23 07:27:00,
2013-06-23 09:32:00,71.6,68.2,29.83,WNW,286,1.0,3.5,89,0.00,BKN,,0.15,227.0,WeatherDisplay:10.37,2013-06-23 07:32:00,
2013-06-23 09:37:00,71.6,68.2,29.83,NNW,342,0.7,3.5,89,0.00,BKN,,0.15,413.0,WeatherDisplay:10.37,2013-06-23 07:37:00,
2013-06-23 09:42:00,72.0,68.6,29.83,NW,323,0.4,3.5,89,0.00,SCT,,0.15,515.0,WeatherDisplay:10.37,2013-06-23 07:42:00,
2013-06-23 09:47:00,72.3,68.5,29.83,NW,305,2.4,4.0,88,0.00,FEW,,0.15,443.0,WeatherDisplay:10.37,2013-06-23 07:47:00,
2013-06-23 09:52:00,72.8,69.0,29.83,NNW,329,1.4,4.0,88,0.00,FEW,,0.15,432.0,WeatherDisplay:10.37,2013-06-23 07:52:00,
2013-06-23 09:57:00,72.9,68.5,29.83,NNW,329,0.4,2.3,86,0.00,SCT,,0.15,325.0,WeatherDisplay:10.37,2013-06-23 07:57:00,
2013-06-23 10:02:00,72.9,68.5,29.82,NNW,329,1.1,3.0,86,0.00,SCT,,0.15,330.0,WeatherDisplay:10.37,2013-06-23 08:02:00,
2013-06-23 10:07:00,73.0,68.2,29.82,NNW,329,0.7,2.3,85,0.00,SCT,,0.15,378.0,WeatherDisplay:10.37,2013-06-23 08:07:00,
2013-06-23 10:12:00,73.1,68.0,29.82,NNW,329,0.2,3.5,84,0.00,SCT,,0.15,415.0,WeatherDisplay:10.37,2013-06-23 08:12:00,
2013-06-23 10:17:00,73.2,68.4,29.82,NNW,329,1.4,3.0,85,0.00,SCT,,0.15,429.0,WeatherDisplay:10.37,2013-06-23 08:17:00,
2013-06-23 10:22:00,73.6,69.5,29.82,WNW,296,1.7,5.0,87,0.00,SCT,,0.15,392.0,WeatherDisplay:10.37,2013-06-23 08:22:00,
2013-06-23 10:27:00,73.8,68.7,29.82,NNW,342,0.0,3.5,84,0.00,SCT,,0.15,540.0,WeatherDisplay:10.37,2013-06-23 08:27:00,
2013-06-23 10:32:00,74.1,68.6,29.82,NW,323,0.6,3.5,83,0.00,FEW,,0.15,563.0,WeatherDisplay:10.37,2013-06-23 08:32:00,
2013-06-23 10:37:00,74.3,69.1,29.82,NW,309,0.9,3.5,84,0.00,SCT,,0.15,608.0,WeatherDisplay:10.37,2013-06-23 08:37:00,
2013-06-23 10:42:00,74.9,69.4,29.82,NW,315,0.1,3.5,83,0.00,SCT,,0.15,427.0,WeatherDisplay:10.37,2013-06-23 08:42:00,
2013-06-23 10:47:00,75.1,69.2,29.82,West,277,0.8,4.6,82,0.00,SCT,,0.15,520.0,WeatherDisplay:10.37,2013-06-23 08:47:00,
2013-06-23 10:52:00,75.3,69.1,29.82,NNE,20,0.1,3.5,81,0.00,SCT,,0.15,520.0,WeatherDisplay:10.37,2013-06-23 08:52:00,
2013-06-23 10:57:00,75.6,69.4,29.82,NW,321,3.2,7.0,81,0.00,SCT,,0.15,225.0,WeatherDisplay:10.37,2013-06-23 08:57:00,
2013-06-23 11:02:00,75.7,69.5,29.83,WNW,294,0.9,3.5,81,0.00,BKN,,0.15,292.0,WeatherDisplay:10.37,2013-06-23 09:02:00,
2013-06-23 11:07:00,76.0,69.0,29.83,NW,310,0.6,3.0,79,0.00,SCT,,0.15,807.0,WeatherDisplay:10.37,2013-06-23 09:07:00,
2013-06-23 11:12:00,76.4,69.0,29.83,NW,310,0.3,2.3,78,0.00,FEW,,0.15,826.0,WeatherDisplay:10.37,2013-06-23 09:12:00,
2013-06-23 11:17:00,77.3,70.3,29.83,WSW,242,1.7,3.5,79,0.00,CLR,,0.15,784.0,WeatherDisplay:10.37,2013-06-23 09:17:00,
2013-06-23 11:22:00,77.9,69.7,29.83,WNW,300,3.9,8.1,76,0.00,CLR,,0.15,819.0,WeatherDisplay:10.37,2013-06-23 09:22:00,
2013-06-23 11:27:00,77.8,69.2,29.83,WNW,284,0.8,4.6,75,0.00,CLR,,0.15,819.0,WeatherDisplay:10.37,2013-06-23 09:27:00,
2013-06-23 11:32:00,77.7,69.5,29.83,NNW,338,2.5,3.5,76,0.00,FEW,,0.15,884.0,WeatherDisplay:10.37,2013-06-23 09:32:00,
2013-06-23 11:37:00,77.7,69.9,29.83,NNW,329,1.6,6.9,77,0.00,FEW,,0.15,269.0,WeatherDisplay:10.37,2013-06-23 09:37:00,
2013-06-23 11:42:00,77.6,70.2,29.83,West,269,5.5,10.4,78,0.00,SCT,,0.15,200.0,WeatherDisplay:10.37,2013-06-23 09:42:00,
2013-06-23 11:47:00,77.2,69.4,29.83,NW,304,1.7,5.8,77,0.00,BKN,,0.15,905.0,WeatherDisplay:10.37,2013-06-23 09:47:00,
2013-06-23 11:52:00,77.4,70.4,29.83,West,270,3.3,7.0,79,0.00,SCT,,0.15,853.0,WeatherDisplay:10.37,2013-06-23 09:52:00,
2013-06-23 11:57:00,77.7,69.5,29.83,NNW,341,1.7,4.0,76,0.00,CLR,,0.15,889.0,WeatherDisplay:10.37,2013-06-23 09:57:00,
2013-06-23 12:02:00,77.8,69.6,29.83,WNW,299,0.6,3.0,76,0.00,FEW,,0.15,265.0,WeatherDisplay:10.37,2013-06-23 10:02:00,
2013-06-23 12:07:00,78.0,69.8,29.83,West,259,2.3,8.0,76,0.00,SCT,,0.15,309.0,WeatherDisplay:10.37,2013-06-23 10:07:00,
2013-06-23 12:12:00,78.0,69.4,29.83,NW,319,1.1,8.1,75,0.00,SCT,,0.15,861.0,WeatherDisplay:10.37,2013-06-23 10:12:00,
2013-06-23 12:17:00,78.4,69.4,29.83,WNW,296,0.5,6.9,74,0.00,FEW,,0.15,793.0,WeatherDisplay:10.37,2013-06-23 10:17:00,
2013-06-23 12:22:00,78.5,70.7,29.83,NW,311,0.7,2.0,77,0.00,CLR,,0.15,814.0,WeatherDisplay:10.37,2013-06-23 10:22:00,
2013-06-23 12:27:00,78.5,69.5,29.83,WNW,294,4.0,6.0,74,0.00,FEW,,0.15,160.0,WeatherDisplay:10.37,2013-06-23 10:27:00,
2013-06-23 12:32:00,78.3,69.3,29.83,West,281,0.3,4.6,74,0.00,BKN,,0.15,109.0,WeatherDisplay:10.37,2013-06-23 10:32:00,
2013-06-23 12:37:00,77.8,69.2,29.83,NW,313,1.6,3.5,75,0.00,BKN,,0.15,174.0,WeatherDisplay:10.37,2013-06-23 10:37:00,
2013-06-23 12:42:00,77.3,69.1,29.83,NW,318,3.0,6.0,76,0.00,BKN,,0.15,369.0,WeatherDisplay:10.37,2013-06-23 10:42:00,
2013-06-23 12:47:00,77.1,69.3,29.83,West,280,2.4,3.5,77,0.00,BKN,,0.15,105.0,WeatherDisplay:10.37,2013-06-23 10:47:00,
2013-06-23 12:52:00,77.0,69.2,29.83,West,281,1.4,5.0,77,0.00,BKN,,0.15,202.0,WeatherDisplay:10.37,2013-06-23 10:52:00,
2013-06-23 12:57:00,77.2,69.4,29.83,WNW,282,0.0,2.3,77,0.00,BKN,,0.15,896.0,WeatherDisplay:10.37,2013-06-23 10:57:00,
2013-06-23 13:02:00,78.0,70.2,29.82,West,264,0.6,5.8,77,0.00,FEW,,0.15,888.0,WeatherDisplay:10.37,2013-06-23 11:02:00,
2013-06-23 13:07:00,79.0,70.0,29.82,NW,308,2.8,6.0,74,0.00,CLR,,0.15,882.0,WeatherDisplay:10.37,2013-06-23 11:07:00,
2013-06-23 13:12:00,79.5,69.7,29.83,NNW,329,1.0,3.5,72,0.00,CLR,,0.15,821.0,WeatherDisplay:10.37,2013-06-23 11:12:00,
2013-06-23 13:17:00,79.7,69.5,29.82,West,271,3.5,5.0,71,0.00,CLR,,0.15,926.0,WeatherDisplay:10.37,2013-06-23 11:17:00,
2013-06-23 13:22:00,80.3,71.6,29.82,WSW,244,3.2,5.0,75,0.00,CLR,,0.15,918.0,WeatherDisplay:10.37,2013-06-23 11:22:00,
2013-06-23 13:27:00,80.8,70.1,29.82,NW,325,1.2,3.5,70,0.00,CLR,,0.15,974.0,WeatherDisplay:10.37,2013-06-23 11:27:00,
2013-06-23 13:32:00,81.0,69.9,29.82,North,9,4.0,8.0,69,0.00,CLR,,0.15,963.0,WeatherDisplay:10.37,2013-06-23 11:32:00,
2013-06-23 13:37:00,80.8,69.2,29.82,NW,311,1.6,6.9,68,0.00,FEW,,0.15,255.0,WeatherDisplay:10.37,2013-06-23 11:37:00,
2013-06-23 13:42:00,80.3,68.8,29.82,NNE,33,1.9,3.5,68,0.00,SCT,,0.15,327.0,WeatherDisplay:10.37,2013-06-23 11:42:00,
2013-06-23 13:47:00,79.6,67.7,29.82,East,96,0.0,2.3,67,0.00,BKN,,0.15,299.0,WeatherDisplay:10.37,2013-06-23 11:47:00,
2013-06-23 13:52:00,79.5,68.9,29.82,East,96,0.0,1.2,70,0.00,BKN,,0.15,234.0,WeatherDisplay:10.37,2013-06-23 11:52:00,
2013-06-23 13:57:00,79.4,68.3,29.82,WNW,301,0.9,3.5,69,0.00,BKN,,0.15,202.0,WeatherDisplay:10.37,2013-06-23 11:57:00,
2013-06-23 14:02:00,79.4,68.8,29.82,NNW,327,0.2,3.5,70,0.00,BKN,,0.15,220.0,WeatherDisplay:10.37,2013-06-23 12:02:00,
2013-06-23 14:07:00,79.4,67.9,29.81,North,5,0.9,3.5,68,0.00,BKN,,0.15,260.0,WeatherDisplay:10.37,2013-06-23 12:07:00,
2013-06-23 14:12:00,79.4,68.3,29.81,North,5,0.6,3.5,69,0.00,BKN,,0.15,285.0,WeatherDisplay:10.37,2013-06-23 12:12:00,
2013-06-23 14:17:00,79.7,69.0,29.81,North,5,0.1,2.3,70,0.00,SCT,,0.15,886.0,WeatherDisplay:10.37,2013-06-23 12:17:00,
2013-06-23 14:22:00,79.9,69.2,29.81,East,90,1.9,4.6,70,0.00,SCT,,0.15,272.0,WeatherDisplay:10.37,2013-06-23 12:22:00,
2013-06-23 14:27:00,79.4,69.6,29.81,ESE,113,1.4,3.5,72,0.00,SCT,,0.15,318.0,WeatherDisplay:10.37,2013-06-23 12:27:00,
2013-06-23 14:32:00,79.1,69.3,29.81,East,94,0.9,4.6,72,0.00,BKN,,0.15,255.0,WeatherDisplay:10.37,2013-06-23 12:32:00,
2013-06-23 14:37:00,79.0,69.2,29.81,East,93,2.3,5.0,72,0.00,BKN,,0.15,209.0,WeatherDisplay:10.37,2013-06-23 12:37:00,
2013-06-23 14:42:00,78.9,69.5,29.81,SE,134,0.5,3.5,73,0.00,BKN,,0.15,193.0,WeatherDisplay:10.37,2013-06-23 12:42:00,
2013-06-23 14:47:00,78.9,69.5,29.81,ESE,123,0.1,4.6,73,0.00,BKN,,0.15,153.0,WeatherDisplay:10.37,2013-06-23 12:47:00,
2013-06-23 14:52:00,78.8,69.4,29.81,South,174,0.7,3.5,73,0.00,BKN,,0.15,153.0,WeatherDisplay:10.37,2013-06-23 12:52:00,
2013-06-23 14:57:00,78.5,69.5,29.81,SE,128,2.6,5.0,74,0.00,BKN,,0.15,287.0,WeatherDisplay:10.37,2013-06-23 12:57:00,
2013-06-23 15:02:00,78.5,70.3,29.81,East,81,1.5,3.5,76,0.00,BKN,,0.15,795.0,WeatherDisplay:10.37,2013-06-23 13:02:00,
2013-06-23 15:07:00,79.1,69.7,29.81,ENE,68,3.6,8.1,73,0.00,SCT,,0.15,257.0,WeatherDisplay:10.37,2013-06-23 13:07:00,
2013-06-23 15:12:00,79.0,69.6,29.80,SSE,163,1.2,6.9,73,0.00,SCT,,0.15,213.0,WeatherDisplay:10.37,2013-06-23 13:12:00,
2013-06-23 15:17:00,78.8,69.0,29.80,SE,127,2.0,4.6,72,0.00,BKN,,0.15,90.0,WeatherDisplay:10.37,2013-06-23 13:17:00,
2013-06-23 15:22:00,78.5,69.1,29.80,SSE,154,1.0,3.5,73,0.00,BKN,,0.15,74.0,WeatherDisplay:10.37,2013-06-23 13:22:00,
2013-06-23 15:27:00,78.4,69.4,29.80,WNW,282,0.5,2.3,74,0.00,BKN,,0.15,91.0,WeatherDisplay:10.37,2013-06-23 13:27:00,
2013-06-23 15:32:00,78.3,69.3,29.80,WNW,290,0.0,2.3,74,0.00,BKN,,0.15,172.0,WeatherDisplay:10.37,2013-06-23 13:32:00,
2013-06-23 15:37:00,78.2,69.6,29.80,South,185,1.7,3.0,75,0.00,BKN,,0.15,385.0,WeatherDisplay:10.37,2013-06-23 13:37:00,
2013-06-23 15:43:00,78.4,69.4,29.80,SE,132,5.8,9.2,74,0.00,SCT,,0.15,793.0,WeatherDisplay:10.37,2013-06-23 13:43:00,
2013-06-23 15:48:00,78.7,69.3,29.80,SSE,156,3.6,8.1,73,0.00,CLR,,0.15,309.0,WeatherDisplay:10.37,2013-06-23 13:48:00,
2013-06-23 15:53:00,78.4,68.6,29.80,SSE,148,3.0,9.2,72,0.00,FEW,,0.15,373.0,WeatherDisplay:10.37,2013-06-23 13:53:00,
2013-06-23 15:58:00,78.3,65.6,29.80,SE,130,5.6,10.4,65,0.00,SCT,,0.15,740.0,WeatherDisplay:10.37,2013-06-23 13:58:00,
2013-06-23 16:03:00,78.2,65.9,29.80,ESE,123,5.4,8.0,66,0.00,CLR,,0.15,267.0,WeatherDisplay:10.37,2013-06-23 14:03:00,
2013-06-23 16:08:00,78.0,66.6,29.80,SE,126,1.4,8.1,68,0.00,SCT,,0.15,197.0,WeatherDisplay:10.37,2013-06-23 14:08:00,
2013-06-23 16:13:00,77.9,66.1,29.79,SE,133,5.7,10.0,67,0.00,BKN,,0.15,172.0,WeatherDisplay:10.37,2013-06-23 14:13:00,
2013-06-23 16:18:00,77.6,64.9,29.79,SE,138,3.0,8.1,65,0.00,BKN,,0.15,156.0,WeatherDisplay:10.37,2013-06-23 14:18:00,
2013-06-23 16:23:00,77.3,65.5,29.79,SSE,155,2.4,6.9,67,0.00,BKN,,0.15,153.0,WeatherDisplay:10.37,2013-06-23 14:23:00,
2013-06-23 16:28:00,77.0,66.0,29.80,SSE,164,2.2,9.2,69,0.00,BKN,,0.15,165.0,WeatherDisplay:10.37,2013-06-23 14:28:00,
2013-06-23 16:33:00,76.7,65.8,29.79,SE,138,4.0,7.0,69,0.00,BKN,,0.15,255.0,WeatherDisplay:10.37,2013-06-23 14:33:00,
2013-06-23 16:38:00,77.0,66.9,29.79,South,185,0.4,5.0,71,0.00,SCT,,0.15,657.0,WeatherDisplay:10.37,2013-06-23 14:38:00,
2013-06-23 16:43:00,78.2,67.2,29.79,SSE,162,5.3,8.0,69,0.00,CLR,,0.15,628.0,WeatherDisplay:10.37,2013-06-23 14:43:00,
2013-06-23 16:48:00,79.0,66.2,29.80,SE,138,3.9,6.0,65,0.00,CLR,,0.15,570.0,WeatherDisplay:10.37,2013-06-23 14:48:00,
2013-06-23 16:53:00,79.0,66.2,29.79,SSE,165,1.3,4.6,65,0.00,CLR,,0.15,178.0,WeatherDisplay:10.37,2013-06-23 14:53:00,
2013-06-23 16:58:00,78.9,66.6,29.79,South,181,0.9,2.0,66,0.00,SCT,,0.15,179.0,WeatherDisplay:10.37,2013-06-23 14:58:00,
2013-06-23 17:04:00,78.9,67.0,29.79,South,181,0.2,2.3,67,0.00,BKN,,0.15,102.0,WeatherDisplay:10.37,2013-06-23 15:04:00,
2013-06-23 17:09:00,78.8,66.5,29.80,South,178,0.1,1.2,66,0.00,BKN,,0.15,77.0,WeatherDisplay:10.37,2013-06-23 15:09:00,
2013-06-23 17:14:00,78.7,66.4,29.80,South,178,0.0,0.0,66,0.00,BKN,,0.15,86.0,WeatherDisplay:10.37,2013-06-23 15:14:00,
2013-06-23 17:19:00,78.6,66.7,29.80,SSE,161,0.0,3.5,67,0.00,BKN,,0.15,88.0,WeatherDisplay:10.37,2013-06-23 15:19:00,
2013-06-23 17:24:00,78.4,67.4,29.80,ESE,109,3.0,9.2,69,0.00,BKN,,0.15,86.0,WeatherDisplay:10.37,2013-06-23 15:24:00,
2013-06-23 17:29:00,78.0,67.4,29.80,East,98,3.2,7.0,70,0.00,BKN,,0.15,128.0,WeatherDisplay:10.37,2013-06-23 15:29:00,
2013-06-23 17:34:00,77.3,66.7,29.79,East,94,3.6,9.2,70,0.00,BKN,,0.15,213.0,WeatherDisplay:10.37,2013-06-23 15:34:00,
2013-06-23 17:39:00,77.0,67.3,29.80,NE,51,2.9,6.9,72,0.00,SCT,,0.15,200.0,WeatherDisplay:10.37,2013-06-23 15:39:00,
2013-06-23 17:44:00,77.0,67.7,29.80,East,82,3.5,6.9,73,0.00,SCT,,0.15,446.0,WeatherDisplay:10.37,2013-06-23 15:44:00,
2013-06-23 17:49:00,76.8,66.3,29.80,NNE,30,3.3,8.1,70,0.00,FEW,,0.15,510.0,WeatherDisplay:10.37,2013-06-23 15:49:00,
2013-06-23 17:54:00,76.6,65.7,29.80,NE,43,3.7,6.9,69,0.00,CLR,,0.15,246.0,WeatherDisplay:10.37,2013-06-23 15:54:00,
2013-06-23 18:00:00,76.3,65.8,29.80,NNE,15,2.5,8.1,70,0.00,CLR,,0.15,410.0,WeatherDisplay:10.37,2013-06-23 16:00:00,
2013-06-23 18:06:00,76.2,65.3,29.80,ENE,59,2.5,9.2,69,0.00,CLR,,0.15,283.0,WeatherDisplay:10.37,2013-06-23 16:06:00,
2013-06-23 18:11:00,75.8,64.9,29.79,ENE,67,4.7,9.0,69,0.00,CLR,,0.15,316.0,WeatherDisplay:10.37,2013-06-23 16:11:00,
2013-06-23 18:16:00,75.5,63.8,29.79,NE,51,3.9,8.1,67,0.00,FEW,,0.15,279.0,WeatherDisplay:10.37,2013-06-23 16:16:00,
2013-06-23 18:21:00,75.4,63.7,29.79,SE,128,3.7,9.2,67,0.00,CLR,,0.15,269.0,WeatherDisplay:10.37,2013-06-23 16:21:00,
2013-06-23 18:26:00,75.3,64.0,29.79,ENE,62,1.9,8.1,68,0.00,FEW,,0.15,260.0,WeatherDisplay:10.37,2013-06-23 16:26:00,
2013-06-23 18:32:00,75.3,64.0,29.79,ENE,71,3.2,10.0,68,0.00,FEW,,0.15,237.0,WeatherDisplay:10.37,2013-06-23 16:32:00,
2013-06-23 18:37:00,75.3,63.6,29.79,ENE,71,3.8,6.9,67,0.00,CLR,,0.15,253.0,WeatherDisplay:10.37,2013-06-23 16:37:00,
2013-06-23 18:42:00,75.4,64.1,29.79,ENE,74,0.5,4.6,68,0.00,CLR,,0.15,223.0,WeatherDisplay:10.37,2013-06-23 16:42:00,
2013-06-23 18:47:00,75.6,64.3,29.79,SE,132,1.2,3.5,68,0.00,CLR,,0.15,200.0,WeatherDisplay:10.37,2013-06-23 16:47:00,
2013-06-23 18:52:00,75.7,63.5,29.79,East,100,2.1,5.0,66,0.00,CLR,,0.15,188.0,WeatherDisplay:10.37,2013-06-23 16:52:00,
2013-06-23 18:57:00,75.8,64.1,29.79,East,100,0.0,1.2,67,0.00,CLR,,0.15,171.0,WeatherDisplay:10.37,2013-06-23 16:57:00,
2013-06-23 18:58:00,75.8,63.6,29.79,East,100,0.1,1.2,66,0.00,CLR,,0.15,171.0,WeatherDisplay:10.37,2013-06-23 16:58:00,
2013-06-23 19:00:00,75.8,63.6,29.79,ESE,102,0.0,1.0,66,0.00,CLR,,0.15,169.0,WeatherDisplay:10.37,2013-06-23 17:00:00,
2013-06-23 19:02:00,75.9,63.7,29.79,East,100,0.3,2.3,66,0.00,CLR,,0.15,165.0,WeatherDisplay:10.37,2013-06-23 17:02:00,
2013-06-23 19:07:00,75.8,63.6,29.79,East,100,0.0,0.0,66,0.00,CLR,,0.15,148.0,WeatherDisplay:10.37,2013-06-23 17:07:00,
2013-06-23 19:12:00,75.7,64.0,29.79,ESE,106,0.0,1.2,67,0.00,CLR,,0.15,134.0,WeatherDisplay:10.37,2013-06-23 17:12:00,
2013-06-23 19:17:00,75.6,63.9,29.79,ESE,106,0.0,0.0,67,0.00,CLR,,0.15,127.0,WeatherDisplay:10.37,2013-06-23 17:17:00,
2013-06-23 19:22:00,75.6,63.9,29.79,ESE,106,0.0,0.0,67,0.00,CLR,,0.15,125.0,WeatherDisplay:10.37,2013-06-23 17:22:00,
2013-06-23 19:27:00,75.5,64.2,29.79,ESE,106,0.0,0.0,68,0.00,CLR,,0.15,114.0,WeatherDisplay:10.37,2013-06-23 17:27:00,
2013-06-23 19:32:00,75.3,63.6,29.79,ESE,106,0.0,0.0,67,0.00,CLR,,0.15,105.0,WeatherDisplay:10.37,2013-06-23 17:32:00,
2013-06-23 19:37:00,75.4,63.7,29.79,ESE,106,0.0,0.0,67,0.00,CLR,,0.15,95.0,WeatherDisplay:10.37,2013-06-23 17:37:00,
2013-06-23 19:42:00,75.5,65.4,29.80,ESE,106,0.0,0.0,71,0.00,CLR,,0.15,97.0,WeatherDisplay:10.37,2013-06-23 17:42:00,
2013-06-23 19:47:00,75.2,64.3,29.80,ESE,106,0.0,0.0,69,0.00,CLR,,0.15,90.0,WeatherDisplay:10.37,2013-06-23 17:47:00,
2013-06-23 19:52:00,75.2,63.9,29.80,NNW,331,0.7,2.0,68,0.00,CLR,,0.15,81.0,WeatherDisplay:10.37,2013-06-23 17:52:00,
2013-06-23 19:57:00,75.4,64.9,29.80,NNW,333,0.3,2.3,70,0.00,CLR,,0.15,70.0,WeatherDisplay:10.37,2013-06-23 17:57:00,
2013-06-23 20:02:00,75.3,65.2,29.80,NNE,16,0.4,3.5,71,0.00,CLR,,0.15,62.0,WeatherDisplay:10.37,2013-06-23 18:02:00,
2013-06-23 20:07:00,75.2,64.7,29.80,NNE,16,0.0,1.2,70,0.00,CLR,,0.15,51.0,WeatherDisplay:10.37,2013-06-23 18:07:00,
2013-06-23 20:12:00,75.1,64.6,29.80,NNE,16,0.0,1.2,70,0.00,CLR,,0.15,40.0,WeatherDisplay:10.37,2013-06-23 18:12:00,
2013-06-23 20:17:00,75.0,64.5,29.80,NNE,16,0.1,1.2,70,0.00,CLR,,0.15,28.0,WeatherDisplay:10.37,2013-06-23 18:17:00,
2013-06-23 20:22:00,74.8,64.4,29.79,NNE,16,0.0,1.2,70,0.00,CLR,,0.15,21.0,WeatherDisplay:10.37,2013-06-23 18:22:00,
2013-06-23 20:27:00,74.7,64.3,29.80,NNE,16,0.3,3.5,70,0.00,CLR,,0.15,16.0,WeatherDisplay:10.37,2013-06-23 18:27:00,
2013-06-23 20:32:00,74.5,64.9,29.80,NNE,16,0.4,2.3,72,0.00,CLR,,0.15,12.0,WeatherDisplay:10.37,2013-06-23 18:32:00,
2013-06-23 20:37:00,74.3,65.1,29.80,NE,54,0.0,0.0,73,0.00,CLR,,0.15,9.0,WeatherDisplay:10.37,2013-06-23 18:37:00,
2013-06-23 20:42:00,74.1,64.9,29.80,ENE,78,0.0,0.0,73,0.00,CLR,,0.15,7.0,WeatherDisplay:10.37,2013-06-23 18:42:00,
2013-06-23 20:47:00,73.9,65.1,29.80,NNE,30,0.3,1.0,74,0.00,CLR,,0.15,5.0,WeatherDisplay:10.37,2013-06-23 18:47:00,
2013-06-23 20:52:00,73.6,65.2,29.80,ENE,57,1.1,3.0,75,0.00,CLR,,0.15,0.0,WeatherDisplay:10.37,2013-06-23 18:52:00,
2013-06-23 20:57:00,73.3,65.3,29.80,NNE,32,1.2,4.0,76,0.00,CLR,,0.15,0.0,WeatherDisplay:10.37,2013-06-23 18:57:00,
2013-06-23 21:02:00,73.1,65.8,29.80,NNE,17,1.0,3.5,78,0.00,CLR,,0.15,0.0,WeatherDisplay:10.37,2013-06-23 19:02:00,
2013-06-23 21:07:00,72.8,65.9,29.81,NE,53,1.4,4.0,79,0.00,CLR,,0.15,0.0,WeatherDisplay:10.37,2013-06-23 19:07:00,
2013-06-23 21:12:00,72.4,65.5,29.81,NNE,30,2.0,4.0,79,0.00,CLR,,0.15,0.0,WeatherDisplay:10.37,2013-06-23 19:12:00,
2013-06-23 21:17:00,72.0,65.5,29.81,NNE,19,3.4,6.0,80,0.00,CLR,,0.15,0.0,WeatherDisplay:10.37,2013-06-23 19:17:00,
2013-06-23 21:22:00,71.7,65.6,29.81,NNE,22,2.0,3.5,81,0.00,CLR,,0.15,0.0,WeatherDisplay:10.37,2013-06-23 19:22:00,
2013-06-23 21:27:00,71.3,65.5,29.81,NE,40,1.8,3.5,82,0.00,CLR,,0.15,0.0,WeatherDisplay:10.37,2013-06-23 19:27:00,
2013-06-23 21:32:00,71.1,65.3,29.82,NE,40,0.1,2.3,82,0.00,CLR,,0.15,0.0,WeatherDisplay:10.37,2013-06-23 19:32:00,
2013-06-23 21:37:00,70.8,65.4,29.82,NE,50,0.5,2.0,83,0.00,CLR,,0.15,0.0,WeatherDisplay:10.37,2013-06-23 19:37:00,
2013-06-23 21:42:00,70.6,65.2,29.82,NE,50,0.1,1.2,83,0.00,CLR,,0.15,0.0,WeatherDisplay:10.37,2013-06-23 19:42:00,
2013-06-23 21:47:00,70.3,64.9,29.82,NE,50,0.1,2.3,83,0.00,CLR,,0.15,0.0,WeatherDisplay:10.37,2013-06-23 19:47:00,
2013-06-23 21:52:00,70.2,65.1,29.82,NE,50,0.0,0.0,84,0.00,CLR,,0.15,0.0,WeatherDisplay:10.37,2013-06-23 19:52:00,
2013-06-23 21:57:00,70.0,64.9,29.82,NE,50,0.0,0.0,84,0.00,CLR,,0.15,0.0,WeatherDisplay:10.37,2013-06-23 19:57:00,
2013-06-23 22:02:00,69.8,64.7,29.82,NE,50,0.0,0.0,84,0.00,CLR,,0.15,0.0,WeatherDisplay:10.37,2013-06-23 20:02:00,
2013-06-23 22:07:00,69.5,64.8,29.82,NE,50,0.0,0.0,85,0.00,CLR,,0.15,0.0,WeatherDisplay:10.37,2013-06-23 20:07:00,
2013-06-23 22:12:00,69.3,64.6,29.82,NE,50,0.0,0.0,85,0.00,CLR,,0.15,0.0,WeatherDisplay:10.37,2013-06-23 20:12:00,
2013-06-23 22:17:00,69.1,64.4,29.82,East,99,1.2,3.5,85,0.00,CLR,,0.15,0.0,WeatherDisplay:10.37,2013-06-23 20:17:00,
2013-06-23 22:22:00,68.9,64.2,29.82,SE,142,0.2,3.5,85,0.00,CLR,,0.15,0.0,WeatherDisplay:10.37,2013-06-23 20:22:00,
2013-06-23 22:27:00,68.7,64.3,29.81,SE,140,0.0,2.3,86,0.00,CLR,,0.15,0.0,WeatherDisplay:10.37,2013-06-23 20:27:00,
2013-06-23 22:32:00,68.6,64.2,29.81,SE,141,0.1,1.2,86,0.00,CLR,,0.15,0.0,WeatherDisplay:10.37,2013-06-23 20:32:00,
2013-06-23 22:37:00,68.4,64.0,29.81,SE,140,0.0,0.0,86,0.00,CLR,,0.15,0.0,WeatherDisplay:10.37,2013-06-23 20:37:00,
2013-06-23 22:42:00,68.4,64.0,29.81,SE,141,0.0,0.0,86,0.00,CLR,,0.15,0.0,WeatherDisplay:10.37,2013-06-23 20:42:00,
2013-06-23 22:47:00,68.2,64.2,29.81,SE,141,0.0,0.0,87,0.00,CLR,,0.15,0.0,WeatherDisplay:10.37,2013-06-23 20:47:00,
2013-06-23 22:52:00,68.1,64.1,29.82,SE,140,0.0,0.0,87,0.00,CLR,,0.15,0.0,WeatherDisplay:10.37,2013-06-23 20:52:00,
2013-06-23 22:57:00,68.0,64.0,29.81,SE,141,0.0,0.0,87,0.00,CLR,,0.15,0.0,WeatherDisplay:10.37,2013-06-23 20:57:00,
2013-06-23 23:02:00,67.9,63.9,29.82,SE,141,0.0,0.0,87,0.00,CLR,,0.15,0.0,WeatherDisplay:10.37,2013-06-23 21:02:00,
2013-06-23 23:07:00,67.8,63.8,29.82,SE,140,0.0,0.0,87,0.00,CLR,,0.15,0.0,WeatherDisplay:10.37,2013-06-23 21:07:00,
2013-06-23 23:12:00,67.7,63.7,29.82,SE,141,0.0,0.0,87,0.00,CLR,,0.15,0.0,WeatherDisplay:10.37,2013-06-23 21:12:00,
2013-06-23 23:17:00,67.6,63.9,29.82,SE,140,0.0,0.0,88,0.00,CLR,,0.15,0.0,WeatherDisplay:10.37,2013-06-23 21:17:00,
2013-06-23 23:22:00,67.4,63.7,29.81,SE,141,0.0,0.0,88,0.00,CLR,,0.15,0.0,WeatherDisplay:10.37,2013-06-23 21:22:00,
2013-06-23 23:27:00,67.3,63.6,29.82,SE,138,0.2,1.2,88,0.00,CLR,,0.15,0.0,WeatherDisplay:10.37,2013-06-23 21:27:00,
2013-06-23 23:32:00,67.1,63.4,29.82,SE,138,0.0,0.0,88,0.00,CLR,,0.15,0.0,WeatherDisplay:10.37,2013-06-23 21:32:00,
2013-06-23 23:37:00,67.0,63.3,29.82,SE,138,0.0,0.0,88,0.00,CLR,,0.15,0.0,WeatherDisplay:10.37,2013-06-23 21:37:00,
2013-06-23 23:42:00,66.9,63.6,29.82,NW,307,0.1,2.3,89,0.00,CLR,,0.15,0.0,WeatherDisplay:10.37,2013-06-23 21:42:00,
2013-06-23 23:47:00,66.8,63.5,29.82,NW,311,0.0,1.2,89,0.00,CLR,,0.15,0.0,WeatherDisplay:10.37,2013-06-23 21:47:00,
2013-06-23 23:52:00,66.7,63.4,29.81,NW,311,0.0,0.0,89,0.00,CLR,,0.15,0.0,WeatherDisplay:10.37,2013-06-23 21:52:00,
2013-06-23 23:57:00,66.6,63.3,29.81,NW,311,0.0,0.0,89,0.00,CLR,,0.15,0.0,WeatherDisplay:10.37,2013-06-23 21:57:00,